[Date Prev][Date Next][Thread Prev][Thread Next] - [Date Index][Thread Index][Author Index]

2 Line ISS Keps 10-13



ISS 
1 25544U 98067A   04287.44641545  .00016987  00000-0  14856-3 0  9015
2 25544  51.6356  82.3027 0009228 220.4988 247.8971 15.69001353336894
----
Via the sarex mailing list at AMSAT.ORG courtesy of AMSAT-NA.
To unsubscribe, send "unsubscribe sarex" to Majordomo@amsat.org



AMSAT Top AMSAT Home